GFSGBSN_850_temp_024.txt.gz
Temp
12 12 12 12 11 10 10 10 10 10 10 10 10 11 11 12 12 13 13 13 13 13 13 13 14 14 15 15 18 18 19 19 19 19 18 18 17 18 17 18 19 17 19 19 18 18 18
12 12 12 12 12 12 11 10 10 10 10 9 10 10 11 12 12 13 13 13 13 13 13 13 14 14 14 12 18 18 18 19 19 19 18 18 19 19 19 19 18 20 19 18 18 20 20
12 12 12 12 12 12 12 11 10 10 10 10 9 10 10 11 12 12 12 12 12 12 13 13 14 14 14 18 18 18 18 19 19 19 19 19 19 19 20 18 20 21 17 17 17 18 18
12 12 12 12 12 12 12 12 11 11 10 10 10 10 10 11 12 12 12 12 12 12 13 13 13 13 15 18 18 18 18 19 19 19 19 19 19 20 20 20 20 20 20 16 17 17 19
10 11 11 12 12 12 12 12 12 11 10 10 9 9 10 10 11 12 12 12 13 12 12 12 12 12 16 19 19 20 19 19 19 19 19 19 19 19 20 17 15 16 17 19 17 18 18
7 8 10 11 12 12 12 12 13 12 11 10 9 9 9 10 11 12 12 12 13 13 12 12 12 12 18 19 20 20 20 20 19 19 18 19 19 15 15 15 15 18 19 19 19 19 17
2 4 7 9 10 11 12 11 12 12 11 10 9 9 9 10 10 11 12 12 13 12 11 15 15 16 18 19 20 20 21 20 19 19 17 18 15 15 16 16 18 19 18 18 18 19 19
2 2 2 3 7 9 11 11 11 11 11 11 9 9 9 9 10 11 11 12 12 11 11 14 15 14 17 17 16 20 20 20 19 16 16 15 15 17 18 19 18 17 18 18 18 19 19
1 1 2 2 2 5 8 10 10 11 10 10 8 9 9 9 10 11 11 12 11 12 11 14 16 17 18 18 18 20 20 20 18 17 17 16 17 18 19 19 17 17 18 18 19 20 17
2 2 1 1 2 2 4 6 10 10 10 8 9 9 9 9 10 11 12 11 13 13 9 13 16 18 18 19 18 20 20 20 19 17 17 17 19 19 19 18 18 16 19 20 20 18 17
2 2 2 1 1 2 2 4 4 8 9 9 8 7 9 9 10 11 11 11 12 12 8 16 17 19 20 19 20 21 21 21 18 18 17 17 19 18 18 18 19 18 19 20 20 17 17
1 1 1 2 1 1 1 1 2 3 7 8 7 7 8 8 10 12 11 11 11 10 9 16 19 18 18 19 19 21 21 21 20 18 18 17 19 19 18 19 19 20 19 16 15 14 12
1 2 2 1 2 1 1 1 1 2 3 5 6 6 7 9 10 11 11 11 9 10 15 17 17 18 17 17 18 18 19 18 16 16 16 18 18 18 19 18 18 19 15 14 14 11 11
1 1 1 1 1 1 1 0 1 1 2 3 6 6 7 8 8 10 10 10 10 12 14 18 18 17 17 17 17 18 17 16 17 17 14 16 15 17 17 18 17 16 16 12 15 11 14
1 0 1 1 1 1 1 0 1 1 2 2 4 6 6 7 8 9 9 10 10 12 16 17 18 16 16 17 18 17 16 16 17 16 16 15 16 15 16 17 17 16 16 16 11 10 12
1 1 0 1 0 0 0 1 1 1 2 2 4 5 6 7 7 7 8 10 12 14 16 18 16 16 15 16 16 16 16 17 17 17 16 15 15 15 16 18 17 16 18 16 12 13 13
-0 -0 0 0 -0 -0 -0 -0 1 1 1 2 3 5 6 6 7 6 8 10 12 14 15 16 16 17 17 16 16 16 17 18 17 15 16 14 15 14 16 16 16 16 16 17 14 11 12
-0 -1 -1 -0 1 -0 -0 -0 0 1 1 2 4 5 6 7 6 7 9 10 12 13 15 14 16 15 16 16 16 16 17 18 19 16 15 14 13 10 14 17 17 16 16 15 10 14 8
0 -1 -1 -1 -0 -0 -0 -1 1 1 1 2 4 6 7 8 6 6 9 11 11 13 14 15 16 16 18 16 16 16 17 18 18 17 16 15 13 10 13 16 16 17 17 16 13 9 11
0 -1 -1 -1 -0 -1 -1 -0 1 1 1 2 5 6 6 6 9 8 8 9 10 12 12 14 15 15 17 17 17 16 16 17 17 17 18 17 14 13 11 14 15 17 18 17 14 9 11
0 -1 -1 -1 -1 -1 -1 0 1 0 1 1 4 8 8 6 7 9 9 10 9 11 14 15 14 15 15 15 16 17 15 16 16 16 16 14 15 15 15 16 17 17 17 18 16 14 12
-0 -1 -1 -1 -1 -1 -0 1 1 -0 1 2 5 8 8 8 8 7 9 10 11 12 13 14 14 15 15 16 15 15 15 14 15 15 16 14 13 15 15 14 15 16 15 15 15 17 15
-1 -1 -2 -1 -1 -1 0 1 1 -0 1 2 3 7 9 9 8 7 9 10 11 12 14 14 15 15 15 15 17 18 19 18 15 13 13 12 9 9 12 10 12 10 13 14 16 16 16
-1 -2 -2 -2 -2 -1 -0 -0 -0 -0 0 2 2 4 8 8 9 9 10 11 11 13 13 15 16 14 16 17 16 16 14 13 13 12 13 9 9 6 7 8 9 13 14 15 14 13 13
-2 -2 -2 -2 -1 -0 -1 0 -0 -0 0 1 3 3 7 5 9 10 10 11 13 14 13 15 16 17 18 17 10 11 7 10 12 12 11 12 7 7 7 7 10 14 15 14 14 13 13
-1 -2 -2 -1 -1 -1 0 -0 -0 -0 0 1 2 3 4 5 8 11 10 12 11 12 12 13 15 16 16 7 7 10 9 11 11 13 11 9 6 7 5 8 8 10 14 16 14 9 13
-2 -2 -1 -1 -1 -1 0 -0 -0 -0 1 1 1 2 3 5 11 12 11 12 13 12 12 11 13 14 14 4 6 7 8 12 9 9 8 5 4 5 2 4 7 10 14 15 12 10 13
-1 -1 -1 -1 -1 -1 -0 -1 0 0 1 1 2 2 2 4 7 11 13 13 13 13 10 11 10 10 6 7 7 6 5 8 8 10 8 8 6 4 5 5 9 13 15 12 10 13 14
-1 -1 -1 -1 -1 -1 -0 0 0 1 1 1 2 2 3 3 5 7 9 12 15 15 14 12 13 11 11 8 6 5 6 3 7 7 11 10 8 7 7 7 11 14 15 15 15 14 13

GFSGBSN_850_temp_030.txt.gz
Temp
10 11 10 10 10 10 10 9 9 9 9 9 9 9 10 10 11 11 12 13 13 13 13 13 14 14 15 15 18 17 18 18 17 17 17 17 17 17 16 16 16 15 16 17 17 17 17
10 10 11 11 10 11 10 10 10 9 9 9 9 9 9 10 10 10 12 12 12 13 13 13 13 13 14 13 17 17 18 17 17 18 18 17 18 17 17 16 16 18 17 16 16 16 17
7 8 10 10 11 11 11 11 11 10 10 9 9 9 9 9 10 10 11 12 12 12 13 13 13 13 13 17 18 17 18 17 18 18 18 18 17 17 18 17 18 17 17 16 15 16 17
4 6 7 8 10 11 11 11 11 11 10 10 9 9 9 9 9 10 10 11 12 12 13 13 13 12 14 18 18 18 18 18 18 18 18 18 17 17 17 18 17 17 16 16 15 16 16
3 3 4 6 5 7 10 10 11 11 11 11 10 9 9 8 9 9 10 11 12 12 13 13 13 12 15 17 18 18 18 18 18 18 18 18 17 18 17 15 14 13 15 17 16 16 16
2 3 3 3 3 5 5 6 10 11 11 11 11 10 8 7 7 9 9 11 12 13 13 13 11 12 16 17 17 18 18 18 18 18 18 18 17 13 12 13 14 16 16 16 17 17 16
1 2 3 3 2 3 3 4 4 6 11 11 11 11 9 7 8 9 9 11 12 11 11 14 14 15 16 17 17 18 18 19 18 18 15 16 13 13 14 15 16 17 16 15 15 17 16
0 0 2 3 3 2 3 3 3 3 5 9 10 11 9 6 8 8 8 10 10 10 9 14 14 13 15 15 15 18 18 18 17 15 15 14 14 14 15 15 16 16 17 16 16 16 15
1 1 1 2 2 3 2 2 3 3 3 4 8 10 8 6 7 8 8 10 10 10 8 12 14 14 16 16 16 17 18 18 16 15 14 14 16 16 17 17 18 16 16 15 16 17 14
2 1 1 1 1 2 3 2 2 2 3 3 5 8 7 6 7 8 9 10 10 11 9 12 12 14 15 17 16 19 18 19 16 15 13 14 16 17 18 18 17 16 16 15 17 15 14
1 2 1 1 1 2 2 3 2 2 2 2 3 7 6 6 7 9 9 9 10 10 8 14 13 15 16 17 18 18 19 19 15 15 15 16 17 17 17 17 17 16 17 16 17 15 15
2 1 2 1 1 1 2 3 2 2 2 2 2 4 5 5 6 9 10 9 9 9 9 14 15 14 14 16 18 17 18 19 18 16 15 15 17 17 16 17 17 17 17 14 12 12 12
2 1 1 2 1 1 1 2 2 2 1 2 2 2 4 5 6 8 8 9 9 8 13 15 14 14 14 14 16 16 15 15 14 14 15 16 16 16 17 18 16 16 14 13 13 11 12
2 2 1 1 2 1 1 2 2 2 2 1 1 2 3 4 5 6 8 8 8 11 12 14 15 14 14 15 15 15 14 13 15 14 12 14 14 16 17 17 16 16 14 11 15 11 13
2 1 1 1 1 1 1 1 2 2 2 2 1 2 2 4 5 6 7 7 9 10 13 14 15 14 14 15 15 15 13 13 14 14 15 13 14 15 16 16 16 15 14 13 10 8 10
2 2 1 1 1 1 1 1 2 1 1 1 1 1 2 4 5 6 7 8 11 12 14 14 14 14 12 13 15 14 12 14 15 14 15 15 16 15 16 16 16 16 13 13 10 14 13
2 1 1 1 1 1 1 1 1 1 1 1 1 2 3 4 5 5 7 8 10 13 14 13 13 14 13 13 13 12 13 16 14 14 14 13 14 14 15 14 15 14 14 12 12 9 11
1 1 1 1 1 1 1 1 1 1 1 1 1 2 4 4 5 6 7 8 11 12 13 12 13 12 14 13 13 13 14 15 16 14 14 13 12 10 14 15 15 15 14 12 9 13 7
-0 1 1 1 1 1 1 1 1 1 1 0 1 3 4 5 5 6 8 9 9 11 12 11 12 12 14 14 15 13 13 16 15 14 13 13 12 10 12 14 14 15 13 13 10 7 9
1 1 1 1 1 1 1 0 1 0 0 0 1 2 4 4 7 7 7 8 8 11 11 12 11 12 14 14 12 14 13 14 14 15 15 15 11 12 13 13 13 14 14 12 12 8 9
1 1 1 2 1 1 1 0 1 0 0 0 1 2 6 5 5 6 8 8 8 9 11 11 10 11 12 13 14 13 13 13 13 13 13 13 13 11 13 14 14 15 16 11 12 12 12
0 1 1 1 1 1 1 0 1 0 0 0 1 4 6 7 6 6 7 8 8 9 10 10 10 11 10 11 12 14 13 12 13 12 12 11 12 12 13 13 14 14 13 13 12 13 12
-0 0 1 1 1 1 0 1 1 0 -0 0 0 3 4 7 6 6 7 8 8 10 10 11 11 11 10 12 14 14 15 13 12 11 10 10 8 9 12 10 12 10 11 12 12 12 13
-0 -0 1 1 1 1 0 -0 0 0 -0 0 2 2 3 5 6 6 7 8 8 9 10 11 11 10 12 14 14 13 12 10 11 9 10 7 8 6 7 7 9 13 12 13 12 11 11
-0 -0 0 1 1 1 -0 0 -0 0 0 1 1 1 2 4 6 7 7 7 8 9 9 10 11 12 13 13 10 11 7 11 10 8 8 8 6 6 8 7 10 13 12 11 12 12 10
0 0 1 0 1 0 -0 0 -0 -0 -0 1 1 1 2 3 5 8 8 8 7 7 8 9 11 11 11 8 6 9 9 10 9 11 8 7 5 7 4 8 9 10 12 13 12 10 10
0 1 1 1 0 0 0 -0 -0 -0 -0 -0 0 1 1 1 3 6 7 7 8 8 6 8 10 10 11 3 5 7 8 10 9 10 8 5 3 6 1 5 7 9 12 14 11 11 11
1 1 0 0 -0 0 -0 -0 -0 -1 -1 -1 -0 1 0 2 3 4 7 8 8 8 7 8 9 8 4 7 6 6 5 7 7 9 8 9 6 4 3 4 9 11 11 11 10 13 13
1 1 0 -0 -0 -0 -0 -0 -1 -1 -1 -1 -1 -1 0 1 3 3 5 6 7 9 9 10 10 9 10 7 4 3 5 2 7 8 8 10 8 7 8 8 10 11 12 15 15 14 13

GFSGBSN_850_temp_036.txt.gz
Temp
4 4 5 5 5 7 9 10 10 10 10 10 10 10 9 9 10 9 9 10 10 11 12 12 13 13 14 14 17 17 17 17 17 17 16 17 18 19 21 20 20 20 21 20 19 19 19
3 3 4 4 4 5 6 9 10 10 10 10 10 10 10 9 9 9 10 10 10 10 11 12 12 12 12 15 17 17 17 17 17 16 16 17 19 18 20 20 20 20 20 20 19 19 19
2 2 3 3 3 3 4 5 7 9 10 10 10 10 10 9 9 9 9 10 11 10 11 12 12 11 12 14 17 17 17 16 17 16 17 17 17 18 19 21 19 20 20 22 20 19 20
1 2 2 2 3 4 3 3 4 5 9 10 10 10 10 10 9 9 9 10 10 10 11 11 12 11 12 16 16 17 17 17 17 17 17 17 17 17 19 19 20 21 21 19 19 20 20
1 1 1 2 2 2 3 3 3 4 5 8 10 10 10 10 10 10 9 10 10 10 11 12 12 11 14 15 16 17 17 16 17 17 17 17 17 19 19 21 22 22 21 21 20 21 20
1 1 1 1 2 2 2 3 3 3 3 5 8 9 10 10 10 10 10 9 10 10 11 11 10 11 14 16 15 17 17 16 16 16 16 17 19 21 21 22 21 21 21 22 21 21 21
1 1 2 2 2 2 2 1 2 3 3 3 4 7 7 9 10 10 10 9 9 9 9 13 14 14 15 15 15 15 17 16 17 18 20 19 20 20 22 22 21 22 21 21 22 22 21
1 1 1 2 2 2 2 2 2 3 3 3 3 3 6 7 9 9 9 7 8 8 11 12 14 13 14 13 15 16 16 17 18 19 20 19 20 21 21 21 20 21 21 21 22 20 20
2 2 2 1 2 2 2 2 2 2 3 3 2 3 3 6 7 8 8 9 9 8 10 14 13 14 14 14 15 18 16 18 19 20 20 20 21 20 20 20 20 21 21 21 21 21 20
3 2 2 2 2 2 2 2 2 2 3 3 3 2 2 3 6 6 7 10 9 8 12 16 14 14 13 15 16 17 16 18 19 20 20 20 20 19 20 20 21 20 21 20 20 20 21
2 2 2 3 2 2 2 2 2 2 2 3 3 2 2 2 5 6 7 8 10 7 13 17 14 13 13 17 18 17 17 18 20 20 19 20 20 19 20 21 21 21 20 20 21 21 20
2 2 2 2 2 2 2 2 2 2 1 2 3 2 2 2 3 7 7 8 8 12 13 16 15 14 14 15 18 17 17 17 20 20 20 21 19 21 21 21 21 20 20 20 20 20 19
2 2 2 2 2 2 2 2 2 2 2 2 3 2 2 2 4 5 7 7 11 12 16 17 16 15 16 17 18 18 19 18 19 18 19 20 20 21 20 20 20 20 21 19 19 19 19
2 2 2 2 2 2 2 2 2 2 2 2 2 2 2 2 3 4 5 8 11 15 16 16 16 16 16 18 18 18 19 19 20 21 20 19 18 20 21 21 21 21 21 19 17 18 20
2 2 2 2 2 2 2 2 2 2 2 2 2 2 2 3 4 4 5 8 12 15 16 17 17 16 16 17 18 18 19 19 20 20 19 19 20 19 19 20 21 20 19 21 18 16 18
2 2 2 2 2 2 2 2 2 1 2 2 1 1 2 2 4 3 5 9 13 16 16 16 16 17 17 17 17 18 18 20 20 20 21 20 19 19 18 19 19 20 21 19 19 17 17
2 3 2 2 2 2 2 2 2 1 1 1 1 0 1 2 3 2 4 9 12 15 15 16 16 17 18 17 18 18 18 17 20 19 21 21 20 18 18 19 20 19 19 19 20 19 18
2 2 1 2 2 2 2 2 2 1 1 1 0 1 2 2 3 3 5 10 12 13 14 15 16 17 17 17 17 18 18 19 19 21 18 20 20 18 19 19 19 21 21 20 18 18 17
1 1 1 2 2 2 2 2 1 1 1 1 1 1 2 1 3 4 8 9 11 12 13 14 15 16 16 16 16 17 17 18 18 19 20 19 18 17 18 18 18 19 20 20 19 17 18
0 1 1 1 2 1 2 2 2 1 1 1 1 2 2 1 5 7 9 9 9 10 13 14 15 15 15 16 15 16 16 15 15 19 19 18 20 18 18 19 21 18 19 20 19 18 18
0 0 1 1 1 1 1 1 2 1 1 0 1 3 2 2 4 8 10 11 9 9 11 13 13 15 15 14 15 15 15 14 14 14 17 18 18 19 20 20 21 20 20 20 19 19 19
0 0 0 0 1 1 1 1 2 1 1 0 1 4 4 7 4 7 8 10 10 9 12 12 12 14 15 14 16 14 14 15 16 14 17 18 18 19 18 19 19 19 20 20 20 20 20
-0 -0 0 0 0 1 1 1 1 1 1 0 1 4 5 6 6 7 7 9 10 11 11 12 13 13 13 13 13 12 12 12 14 16 16 16 17 16 17 16 16 15 17 19 20 20 19
0 -0 0 -0 0 0 1 1 2 1 0 0 1 4 5 7 7 7 7 9 10 10 11 12 12 13 12 12 12 12 12 13 14 15 16 15 15 17 16 11 13 19 19 20 20 20 20
-0 0 -0 0 -0 0 1 1 2 1 0 0 1 3 5 5 8 7 7 8 9 10 10 11 12 12 11 11 11 11 12 12 12 14 14 15 16 14 13 15 18 17 17 18 18 20 21
0 0 0 0 -0 0 0 0 1 1 0 0 1 3 5 6 8 8 7 7 7 9 10 11 11 10 10 10 10 10 12 14 14 13 12 12 13 15 12 15 15 19 21 19 19 18 22
0 0 -0 0 -0 -0 0 0 1 0 0 0 1 2 4 6 7 8 8 5 7 8 10 10 10 10 10 9 9 11 12 14 14 13 10 11 12 13 14 15 18 19 18 17 17 19 20
0 0 0 0 -0 0 0 0 1 0 -0 0 1 2 3 4 4 4 5 6 5 8 10 10 10 10 10 9 10 12 11 12 14 16 12 13 13 12 14 13 14 16 15 18 20 17 18
1 0 0 0 1 0 1 1 1 -0 -0 0 1 2 2 4 3 2 4 4 3 8 10 9 11 11 11 10 11 13 10 8 13 13 13 13 15 16 16 17 19 16 19 17 17 19 16

GFSGBSN_850_temp_042.txt.gz
Temp
3 3 4 4 4 4 4 4 6 7 9 10 11 11 10 10 10 11 11 10 10 11 11 11 12 12 14 15 17 18 18 19 18 18 17 20 21 22 22 24 24 24 24 24 24 23 23
2 2 3 3 3 4 4 4 4 5 6 7 10 10 11 10 11 11 11 11 10 11 11 11 11 12 11 13 18 18 18 18 18 17 19 21 21 22 22 23 24 24 24 24 24 24 23
2 2 2 3 3 3 3 4 4 4 3 4 5 8 9 11 11 11 11 11 11 11 11 11 11 10 9 13 18 17 17 17 17 18 20 20 21 21 22 23 23 23 23 24 24 24 23
2 2 2 2 2 2 3 3 3 3 3 3 3 4 6 10 11 11 11 11 12 11 11 11 10 10 10 17 16 17 18 17 18 19 19 20 20 20 20 21 23 23 23 22 23 24 21
2 2 2 2 2 2 2 3 3 3 3 3 3 3 4 7 10 11 11 12 12 12 11 11 10 10 13 15 16 17 18 18 19 19 19 19 19 20 21 22 21 23 22 23 23 24 22
1 1 2 2 2 2 2 2 3 3 3 3 3 3 3 3 6 10 11 12 12 12 10 9 9 11 13 16 17 17 18 18 19 19 19 19 20 20 22 21 20 22 22 23 22 22 23
1 1 2 2 2 2 2 2 2 2 3 3 3 3 3 3 3 8 10 12 12 10 9 13 15 14 16 18 18 18 18 18 19 20 19 20 20 20 22 23 23 24 23 22 23 22 22
1 1 2 2 2 2 2 2 2 3 2 2 3 3 3 3 3 5 7 7 13 11 12 14 15 16 16 17 18 18 19 19 19 20 21 21 20 22 23 24 24 24 23 23 25 24 24
2 2 2 2 2 2 2 2 2 2 3 2 2 3 3 3 3 5 7 10 11 11 12 14 16 17 17 17 18 19 19 19 20 20 21 20 22 24 23 23 23 23 22 23 22 23 24
2 2 2 2 2 2 2 2 2 2 2 3 3 2 3 3 4 6 7 9 10 10 12 16 18 18 18 18 19 19 20 20 20 20 21 22 23 23 23 22 23 21 24 23 22 22 21
2 2 2 2 2 2 2 2 2 2 2 2 3 2 2 2 5 7 8 9 10 9 11 20 21 19 19 19 20 19 19 20 20 21 22 21 22 22 22 22 24 22 23 22 23 22 22
2 2 2 2 2 2 2 2 2 2 2 2 2 2 2 3 3 7 6 9 9 11 12 19 19 18 18 19 19 21 20 20 20 21 22 22 24 23 23 23 24 24 22 22 22 22 20
2 2 2 2 3 3 3 2 2 2 2 2 2 2 2 2 3 5 5 8 10 11 18 18 19 19 18 18 19 19 20 20 19 18 19 21 22 24 24 22 24 23 22 19 19 19 19
1 2 2 2 2 2 3 3 2 2 2 2 2 2 2 2 4 4 5 6 10 14 15 21 21 20 18 19 18 18 20 19 20 20 20 20 19 22 23 23 22 22 22 19 14 13 18
1 1 2 2 2 2 2 2 2 2 2 2 2 1 1 2 3 3 3 6 10 13 18 16 19 19 19 19 19 19 19 20 21 20 19 20 20 23 23 23 23 22 21 22 15 14 14
1 1 2 2 2 3 2 2 2 2 2 2 1 1 1 2 3 3 3 5 10 14 16 18 16 18 18 19 19 19 19 21 20 21 21 21 19 22 23 23 23 22 23 20 20 17 16
1 1 1 1 2 2 2 2 2 2 2 2 1 1 2 2 3 2 3 6 9 11 14 15 15 16 18 19 19 19 19 21 21 21 22 21 20 20 23 22 21 21 21 21 21 21 18
1 1 1 1 2 2 2 2 2 2 2 1 1 2 2 3 2 3 4 7 10 11 12 15 16 16 18 19 19 18 19 21 22 22 21 21 20 18 20 23 22 22 22 21 19 19 19
0 1 1 1 1 2 2 2 2 2 2 2 1 1 2 3 2 3 5 7 9 11 12 13 15 16 17 17 17 18 20 21 22 22 21 21 19 17 19 21 22 21 22 22 22 21 19
0 0 1 1 2 1 1 2 2 2 2 2 1 2 2 2 4 6 5 7 8 9 11 12 15 16 16 16 16 15 18 20 21 21 20 19 20 18 17 19 21 20 22 22 21 17 17
0 1 1 1 1 0 1 2 2 2 2 2 1 2 4 3 3 7 7 9 9 10 10 11 13 15 16 15 15 14 14 16 18 19 20 19 18 19 20 21 22 21 21 21 21 20 19
0 0 0 0 1 0 1 2 2 2 2 2 0 3 5 7 5 6 7 8 9 11 11 10 12 14 16 16 16 13 12 15 15 18 18 18 17 18 18 20 21 20 22 22 22 22 22
0 0 0 0 0 0 1 1 1 2 2 2 1 3 6 6 6 5 7 8 10 11 12 12 13 14 14 16 17 12 10 10 8 9 17 17 17 17 16 19 19 16 19 21 22 23 22
-0 0 -0 -0 0 0 0 1 1 1 0 2 1 3 3 5 7 7 8 8 9 11 11 13 13 14 15 14 11 10 10 10 8 9 15 16 17 17 15 13 14 19 22 22 21 22 22
0 0 0 0 0 -0 0 0 1 1 1 1 -0 2 4 4 8 8 8 9 10 11 11 12 13 13 15 12 13 10 8 7 9 12 12 14 13 12 13 15 17 19 20 20 20 20 22
1 1 1 1 1 1 0 0 0 1 1 0 -0 1 3 5 7 8 9 9 9 10 10 12 12 14 14 14 7 8 8 10 10 12 14 12 13 11 13 14 14 17 20 22 22 18 22
1 1 1 1 1 1 1 0 0 0 -0 -0 -0 1 3 5 7 8 9 8 10 10 11 11 12 12 13 11 10 8 10 14 13 12 11 10 10 9 12 13 15 19 20 21 17 18 22
1 1 1 1 1 1 0 0 0 0 -0 0 -0 0 2 3 7 6 6 8 9 10 10 12 11 11 10 7 9 11 10 13 14 16 13 10 9 10 12 12 12 20 19 18 20 21 22
1 1 1 1 1 0 0 0 0 0 -0 0 1 1 2 4 3 5 5 6 7 7 11 11 11 12 11 10 7 11 11 11 14 13 16 11 12 11 12 13 11 12 19 20 21 20 21

GFSGBSN_850_temp_045.txt.gz
Temp
7 8 7 7 6 5 5 5 4 4 4 4 7 9 10 11 11 11 11 11 12 12 11 11 11 12 13 12 15 18 18 18 18 19 18 19 19 20 18 20 21 22 21 23 23 23 22
5 5 3 5 5 4 4 5 5 4 4 3 4 6 9 10 11 11 11 11 12 12 11 11 10 11 10 10 18 17 18 18 18 18 19 19 19 21 21 21 19 22 22 22 23 23 22
2 2 3 3 4 4 4 4 4 4 4 4 4 3 5 8 10 11 11 12 12 12 11 11 10 9 9 13 18 16 16 17 18 18 18 19 20 20 20 18 21 21 19 20 21 23 20
2 3 3 3 3 3 3 2 4 4 3 4 3 3 3 4 9 11 11 11 12 12 11 11 10 9 8 17 16 18 17 17 17 18 18 19 20 20 20 20 20 18 19 18 20 21 19
2 2 2 2 2 2 2 2 2 3 3 3 3 3 3 3 4 9 11 12 12 11 11 10 9 9 9 15 16 18 17 17 17 18 19 19 19 19 19 17 15 17 16 18 21 21 18
2 1 2 2 2 2 2 2 2 3 3 3 3 3 3 3 3 5 10 11 13 12 10 8 9 8 12 17 17 18 18 18 18 18 18 19 19 16 15 15 14 16 18 20 20 19 18
1 1 1 1 2 2 2 2 2 2 2 2 3 3 3 3 3 3 8 11 12 11 10 10 12 13 15 16 17 18 18 18 18 19 16 18 15 14 15 16 19 19 19 19 19 20 19
1 1 1 2 2 2 2 2 2 2 2 2 3 2 3 3 3 3 5 8 11 9 9 11 12 12 13 15 15 17 18 17 17 16 17 16 15 17 19 19 19 20 19 19 21 22 20
1 1 2 2 2 2 2 3 3 2 2 2 2 2 2 3 3 4 6 8 10 10 9 11 12 13 15 15 16 16 18 18 17 16 17 16 17 20 20 20 20 20 20 19 20 20 21
1 1 2 2 2 2 2 2 2 2 2 2 2 2 2 3 4 5 6 7 9 10 7 11 15 15 14 16 16 18 18 18 17 17 17 17 19 20 20 20 20 18 20 21 20 20 17
1 2 2 2 2 2 2 2 2 2 3 3 2 2 2 2 4 6 6 8 9 9 6 15 17 18 18 17 18 17 18 18 17 17 17 17 18 19 19 20 21 19 21 21 21 18 18
0 1 2 2 2 2 2 2 2 2 2 3 2 2 2 2 3 6 6 7 9 7 8 15 18 18 18 17 18 19 18 18 19 18 18 18 21 20 20 22 21 21 21 20 19 17 14
1 1 1 2 2 2 2 2 2 2 2 2 2 2 2 2 3 4 4 6 6 7 15 16 17 17 17 17 17 17 17 16 15 15 16 18 19 20 21 20 21 20 19 15 15 13 13
1 1 1 1 2 1 2 2 3 2 2 2 2 2 2 2 3 3 4 5 6 11 11 16 17 16 16 17 17 17 16 15 16 16 15 15 15 19 21 20 19 18 17 13 14 11 14
0 0 1 1 1 1 2 2 2 2 2 2 2 2 1 2 3 2 3 5 7 10 13 14 15 14 16 17 17 17 16 16 17 17 16 15 17 20 21 21 20 19 17 17 13 13 12
0 0 0 1 1 1 2 2 2 3 3 3 2 1 1 3 3 2 3 5 7 10 12 13 12 14 15 16 16 16 16 17 17 18 18 17 16 19 21 21 20 20 20 17 15 13 11
-0 0 -0 0 1 1 1 2 2 2 2 2 2 2 2 3 2 2 3 4 7 9 10 11 12 12 13 13 15 16 17 18 18 19 19 18 16 16 20 19 19 18 18 18 17 16 13
-0 -0 -0 -0 1 1 1 1 2 2 2 2 2 2 2 2 2 2 3 5 7 9 9 9 11 12 12 13 13 14 14 16 19 18 18 18 16 15 17 20 20 19 18 17 13 16 14
-1 -0 -0 0 0 1 1 1 2 2 2 2 2 1 2 3 2 2 4 4 5 6 8 10 10 11 12 12 12 14 15 16 15 17 18 18 17 14 17 18 19 19 19 19 18 15 15
-1 -0 -0 0 0 1 1 1 1 2 2 2 1 1 2 2 3 4 3 4 4 7 7 7 9 11 11 10 13 13 14 15 14 13 12 17 17 16 15 16 17 17 18 19 18 13 14
-1 -0 -0 0 0 1 1 1 1 2 2 2 1 1 3 3 2 4 4 6 6 5 7 9 8 9 10 10 11 12 13 13 12 13 13 14 16 16 18 18 18 19 19 19 18 18 16
-1 -0 -0 0 0 1 1 1 1 1 1 2 -0 2 3 5 4 3 4 5 6 7 7 8 8 9 10 10 11 11 11 11 10 10 9 12 14 15 15 17 19 18 18 19 19 18 17
-0 -0 -0 -0 0 0 1 1 1 1 1 2 1 2 4 4 3 3 4 5 6 7 8 9 9 9 8 10 12 12 12 10 9 9 8 8 10 13 14 15 16 13 16 18 18 19 19
-0 -0 -0 -0 0 0 0 0 1 1 0 1 2 2 2 3 4 3 5 5 6 7 7 9 10 9 10 11 12 10 9 9 9 8 8 8 8 10 9 12 12 16 18 18 17 18 19
-0 -0 -0 -0 0 0 0 1 1 1 1 -0 1 1 3 2 4 5 5 6 6 7 8 9 10 11 12 12 10 8 5 8 8 10 8 7 7 8 11 12 14 15 18 17 17 17 19
-0 -0 0 0 0 0 0 1 1 1 0 -0 -0 1 2 3 3 6 6 6 6 6 6 7 9 10 11 9 6 7 7 8 8 9 10 7 5 6 7 11 12 14 16 18 19 15 19
0 0 1 1 1 1 0 0 0 1 1 -0 -0 0 1 2 5 6 6 6 7 7 6 8 9 9 11 6 7 7 6 9 8 8 7 6 5 6 7 8 10 14 17 20 15 15 18
1 1 1 1 1 1 1 0 0 0 0 -0 0 0 0 -0 3 6 7 8 8 8 6 8 8 9 6 6 5 5 4 7 7 9 10 8 7 7 8 8 9 12 14 16 12 16 18
1 1 1 1 1 1 1 1 0 0 0 -0 0 0 0 1 2 5 6 8 8 8 8 9 9 9 8 6 5 5 5 6 8 8 12 8 8 8 9 8 11 12 12 11 11 11 15